TimeEST,TemperatureF,Dew PointF,Humidity,Sea Level PressureIn,VisibilityMPH,Wind Direction,Wind SpeedMPH,Gust SpeedMPH,PrecipitationIn,Events,Conditions,WindDirDegrees,DateUTC
12:15 AM,59.0,55.4,88,29.37,10.0,South,12.7,20.7,N/A,,Overcast,180,2013-01-30 05:15:00
12:35 AM,59.0,55.4,88,29.36,10.0,South,6.9,21.9,N/A,,Overcast,190,2013-01-30 05:35:00
12:55 AM,59.0,55.4,88,29.33,10.0,South,6.9,25.3,N/A,Rain,Light Rain,190,2013-01-30 05:55:00
1:15 AM,59.0,55.4,88,29.37,10.0,WNW,19.6,29.9,N/A,,Overcast,290,2013-01-30 06:15:00
1:35 AM,51.8,51.8,100,29.39,4.0,WNW,18.4,24.2,0.25,Rain,Heavy Rain,300,2013-01-30 06:35:00
1:55 AM,51.8,51.8,100,29.39,7.0,WNW,12.7,19.6,0.32,Rain,Rain,290,2013-01-30 06:55:00
2:15 AM,51.8,51.8,100,29.41,7.0,NW,16.1,19.6,0.04,Rain,Rain,310,2013-01-30 07:15:00
2:55 AM,51.8,50.0,94,29.38,10.0,NW,5.8,-,0.10,Rain,Light Rain,310,2013-01-30 07:55:00
3:15 AM,51.8,50.0,94,29.39,10.0,NW,6.9,-,N/A,Rain,Light Rain,320,2013-01-30 08:15:00
3:35 AM,50.0,50.0,100,29.38,10.0,WNW,3.5,-,0.01,Rain,Rain,290,2013-01-30 08:35:00
3:55 AM,50.0,50.0,100,29.38,7.0,Calm,Calm,-,0.03,Rain,Rain,0,2013-01-30 08:55:00
4:15 AM,50.0,50.0,100,29.38,3.0,Calm,Calm,-,0.01,Rain,Rain,0,2013-01-30 09:15:00
4:55 AM,50.0,50.0,100,29.40,4.0,Calm,Calm,-,0.08,Rain,Rain,0,2013-01-30 09:55:00
5:15 AM,50.0,50.0,100,29.38,1.8,Calm,Calm,-,0.03,Rain,Rain,0,2013-01-30 10:15:00
5:35 AM,50.0,50.0,100,29.36,3.0,SE,3.5,-,0.05,Rain,Light Rain,130,2013-01-30 10:35:00
5:55 AM,50.0,50.0,100,29.35,4.0,SSE,3.5,-,0.05,Rain,Light Rain,150,2013-01-30 10:55:00
6:15 AM,50.0,50.0,100,29.36,7.0,Calm,Calm,-,N/A,,Light Drizzle,0,2013-01-30 11:15:00
6:35 AM,48.2,48.2,100,29.32,5.0,SE,9.2,-,N/A,Rain,Light Rain,140,2013-01-30 11:35:00
6:55 AM,50.0,48.2,94,29.32,4.0,SSE,3.5,-,N/A,Rain,Light Rain,160,2013-01-30 11:55:00
7:15 AM,50.0,48.2,94,29.31,5.0,SSE,4.6,-,N/A,,Overcast,150,2013-01-30 12:15:00
7:35 AM,48.2,48.2,100,29.33,7.0,South,6.9,-,N/A,,Overcast,170,2013-01-30 12:35:00
7:55 AM,48.2,48.2,100,29.29,5.0,SSE,4.6,-,N/A,,Overcast,160,2013-01-30 12:55:00
8:15 AM,48.2,48.2,100,29.29,7.0,Calm,Calm,-,N/A,,Overcast,0,2013-01-30 13:15:00
8:35 AM,48.2,48.2,100,29.32,5.0,SSW,4.6,-,N/A,,Overcast,210,2013-01-30 13:35:00
8:55 AM,48.2,48.2,100,29.33,7.0,SW,3.5,-,N/A,,Overcast,220,2013-01-30 13:55:00
9:15 AM,48.2,48.2,100,29.35,7.0,SSW,3.5,-,N/A,,Overcast,210,2013-01-30 14:15:00
9:35 AM,48.2,48.2,100,29.34,7.0,SSW,5.8,-,N/A,,Overcast,200,2013-01-30 14:35:00
9:55 AM,48.2,48.2,100,29.35,7.0,SSW,6.9,-,N/A,,Overcast,210,2013-01-30 14:55:00
10:15 AM,48.2,48.2,100,29.34,10.0,SSW,8.1,-,N/A,,Overcast,210,2013-01-30 15:15:00
10:35 AM,50.0,48.2,94,29.33,7.0,SSW,6.9,-,N/A,,Overcast,200,2013-01-30 15:35:00
10:55 AM,50.0,48.2,94,29.31,10.0,SSW,8.1,-,N/A,,Overcast,210,2013-01-30 15:55:00
11:15 AM,50.0,46.4,87,29.30,10.0,SSW,10.4,-,N/A,,Overcast,210,2013-01-30 16:15:00
11:35 AM,50.0,46.4,87,29.31,10.0,SSW,6.9,-,N/A,,Overcast,210,2013-01-30 16:35:00
11:55 AM,50.0,46.4,87,29.29,10.0,SSW,8.1,17.3,N/A,,Overcast,210,2013-01-30 16:55:00
12:15 PM,50.0,48.2,94,29.27,7.0,SW,6.9,17.3,N/A,,Overcast,220,2013-01-30 17:15:00
12:35 PM,50.0,48.2,94,29.25,3.0,SSW,8.1,-,N/A,,Overcast,200,2013-01-30 17:35:00
12:55 PM,50.0,48.2,94,29.27,2.5,SW,9.2,-,N/A,,Drizzle,220,2013-01-30 17:55:00
1:15 PM,50.0,48.2,94,29.28,7.0,SSW,9.2,17.3,N/A,,Light Drizzle,210,2013-01-30 18:15:00
1:35 PM,50.0,46.4,87,29.26,5.0,SSW,10.4,16.1,0.01,Rain,Light Rain,210,2013-01-30 18:35:00
2:15 PM,50.0,48.2,94,29.22,10.0,SW,9.2,-,N/A,,Overcast,220,2013-01-30 19:15:00
2:35 PM,51.8,46.4,82,29.21,10.0,SSW,9.2,16.1,N/A,,Mostly Cloudy,200,2013-01-30 19:35:00
2:55 PM,50.0,46.4,87,29.21,7.0,SSW,8.1,19.6,0.01,Rain,Rain,210,2013-01-30 19:55:00
3:15 PM,44.6,42.8,93,29.23,4.0,WSW,16.1,26.5,0.07,Rain,Light Rain,240,2013-01-30 20:15:00
3:55 PM,44.6,41.0,87,29.23,7.0,WSW,18.4,28.8,0.11,Rain,Light Rain,250,2013-01-30 20:55:00
4:15 PM,41.0,37.4,87,29.24,5.0,WSW,18.4,28.8,0.02,Rain,Light Rain,250,2013-01-30 21:15:00
4:35 PM,41.0,37.4,87,29.23,10.0,WSW,13.8,19.6,0.02,,Overcast,250,2013-01-30 21:35:00
5:15 PM,37.4,35.6,93,29.26,7.0,WSW,16.1,29.9,N/A,Rain,Rain,240,2013-01-30 22:15:00
5:35 PM,35.6,33.8,93,29.27,10.0,WSW,13.8,23.0,N/A,Rain,Light Rain,250,2013-01-30 22:35:00
5:55 PM,35.6,33.8,93,29.25,10.0,WSW,12.7,21.9,0.01,Rain,Light Rain,250,2013-01-30 22:55:00
6:15 PM,35.6,33.8,93,29.26,7.0,WSW,16.1,24.2,N/A,Rain,Light Rain,250,2013-01-30 23:15:00
6:35 PM,35.6,33.8,93,29.27,10.0,WSW,15.0,20.7,N/A,,Light Drizzle,240,2013-01-30 23:35:00
6:55 PM,35.6,32.0,87,29.28,10.0,WSW,19.6,25.3,N/A,,Overcast,250,2013-01-30 23:55:00
7:15 PM,35.6,32.0,87,29.28,10.0,WSW,20.7,28.8,N/A,,Overcast,240,2013-01-31 00:15:00
7:55 PM,32.0,32.0,100,29.34,5.0,West,23.0,-,0.01,Snow,Light Snow,280,2013-01-31 00:55:00
8:15 PM,32.0,30.2,93,29.34,5.0,WNW,19.6,28.8,N/A,Snow,Light Snow,300,2013-01-31 01:15:00
8:35 PM,32.0,30.2,93,29.36,4.0,WNW,21.9,27.6,N/A,Snow,Light Snow,290,2013-01-31 01:35:00
8:55 PM,32.0,28.4,87,29.37,5.0,West,20.7,31.1,N/A,Snow,Light Snow,280,2013-01-31 01:55:00
9:15 PM,30.2,28.4,93,29.38,7.0,West,21.9,28.8,N/A,Snow,Light Snow,280,2013-01-31 02:15:00
9:35 PM,30.2,28.4,93,29.39,7.0,WNW,20.7,26.5,N/A,,Overcast,290,2013-01-31 02:35:00
9:55 PM,30.2,26.6,86,29.40,10.0,WNW,17.3,27.6,N/A,,Overcast,290,2013-01-31 02:55:00
10:15 PM,30.2,26.6,86,29.42,10.0,WNW,25.3,29.9,N/A,,Overcast,290,2013-01-31 03:15:00
10:55 PM,30.2,26.6,86,29.44,2.5,West,18.4,24.2,N/A,Snow,Light Snow,280,2013-01-31 03:55:00
11:15 PM,28.4,26.6,93,29.46,1.5,West,12.7,23.0,N/A,Snow,Light Snow,270,2013-01-31 04:15:00
11:35 PM,28.4,28.4,100,29.47,2.0,West,21.9,27.6,N/A,Snow,Light Snow,270,2013-01-31 04:35:00
11:55 PM,28.4,24.8,86,29.48,10.0,WNW,21.9,28.8,N/A,Snow,Light Snow,290,2013-01-31 04:55:00